When you browse on this site, cookies collect data to enhance your experience and personalize the content and advertising you see.
Visit our Privacy Policy to learn more. By continuing to use the site, you agree to this use of cookies and data.
  • en Suisse
  • Liste des pays
  • À 7 jours
  • Température de l'eau
  • Carte satellitaire
  • Carte météo
  • Widgets météo
  • user-avatar
    Se connecter

    Météo par heure à Gifhorn

    Ce jour, 23 Mai, Jeudi

    Heure Température Précipitation Vent Pression Humidité
    00:00 +8°C° 0 mm 1 m/s 759 mmHg 90%
    01:00 +8°C° 0 mm 1 m/s 759 mmHg 90%
    02:00 +8°C° 0 mm 1 m/s 759 mmHg 91%
    03:00 +8°C° 0 mm 1 m/s 759 mmHg 92%
    04:00 +7°C° 0 mm 1 m/s 759 mmHg 93%
    05:00 +9°C° 0 mm 1 m/s 759 mmHg 88%
    06:00 +11°C° 0 mm 1 m/s 759 mmHg 84%
    07:00 +12°C° 0 mm 1 m/s 759 mmHg 77%
    08:00 +14°C° 0 mm 1 m/s 759 mmHg 68%
    09:00 +16°C° 0 mm 1 m/s 759 mmHg 59%
    10:00 +18°C° 0 mm 1 m/s 759 mmHg 50%
    11:00 +19°C° 0 mm 1 m/s 759 mmHg 48%
    12:00 +19°C° 0 mm 2 m/s 759 mmHg 46%
    13:00 +20°C° 0 mm 2 m/s 759 mmHg 44%
    14:00 +20°C° 0 mm 2 m/s 758 mmHg 45%
    15:00 +20°C° 0 mm 2 m/s 758 mmHg 46%
    16:00 +20°C° 0 mm 2 m/s 758 mmHg 47%
    17:00 +21°C° 0 mm 1 m/s 758 mmHg 53%
    18:00 +20°C° 0 mm 1 m/s 757 mmHg 59%
    19:00 +17°C° 0 mm 0 m/s 757 mmHg 65%
    20:00 +16°C° 0 mm 1 m/s 757 mmHg 67%
    21:00 +15°C° 0 mm 1 m/s 757 mmHg 69%
    22:00 +13°C° 0 mm 2 m/s 757 mmHg 72%
    23:00 +13°C° 0 mm 2 m/s 757 mmHg 75%

    Demain, 24 Mai, Vendredi

    Heure Température Précipitation Vent Pression Humidité
    00:00 +12°C° 0 mm 2 m/s 757 mmHg 77%
    01:00 +12°C° 0 mm 2 m/s 757 mmHg 80%
    02:00 +12°C° 0 mm 2 m/s 757 mmHg 81%
    03:00 +12°C° 0 mm 2 m/s 756 mmHg 82%
    04:00 +12°C° 0 mm 2 m/s 756 mmHg 83%
    05:00 +13°C° 0 mm 2 m/s 756 mmHg 80%
    06:00 +14°C° 0 mm 2 m/s 756 mmHg 77%
    07:00 +14°C° 0 mm 3 m/s 756 mmHg 75%
    08:00 +17°C° 0 mm 3 m/s 756 mmHg 68%
    09:00 +18°C° 0 mm 3 m/s 756 mmHg 61%
    10:00 +20°C° 0 mm 3 m/s 756 mmHg 55%
    11:00 +21°C° 0 mm 3 m/s 755 mmHg 54%
    12:00 +21°C° 0 mm 3 m/s 755 mmHg 54%
    13:00 +22°C° 0 mm 4 m/s 755 mmHg 54%
    14:00 +22°C° 0.4 mm 4 m/s 754 mmHg 57%
    15:00 +22°C° 0.4 mm 4 m/s 754 mmHg 60%
    16:00 +21°C° 0.4 mm 4 m/s 754 mmHg 63%
    17:00 +20°C° 0.3 mm 4 m/s 754 mmHg 71%
    18:00 +19°C° 0.3 mm 3 m/s 754 mmHg 78%
    19:00 +18°C° 0.3 mm 3 m/s 754 mmHg 85%
    20:00 +16°C° 0 mm 3 m/s 754 mmHg 88%
    21:00 +13°C° 0 mm 3 m/s 755 mmHg 90%
    22:00 +12°C° 0 mm 2 m/s 755 mmHg 93%
    23:00 +10°C° 0 mm 2 m/s 755 mmHg 94%

    Après-demain, 25 Mai, Samedi

    Heure Température Précipitation Vent Pression Humidité
    00:00 +9°C° 0 mm 2 m/s 755 mmHg 95%
    01:00 +8°C° 0 mm 2 m/s 755 mmHg 96%
    02:00 +8°C° 0 mm 2 m/s 755 mmHg 97%
    03:00 +8°C° 0 mm 2 m/s 756 mmHg 97%
    04:00 +7°C° 0 mm 3 m/s 756 mmHg 98%
    05:00 +8°C° 0 mm 3 m/s 756 mmHg 95%
    06:00 +9°C° 0 mm 3 m/s 756 mmHg 93%
    07:00 +10°C° 0 mm 4 m/s 756 mmHg 90%
    08:00 +10°C° 0 mm 4 m/s 756 mmHg 87%
    09:00 +11°C° 0 mm 4 m/s 757 mmHg 84%
    10:00 +12°C° 0 mm 4 m/s 757 mmHg 80%
    11:00 +13°C° 0 mm 4 m/s 757 mmHg 76%
    12:00 +14°C° 0 mm 4 m/s 757 mmHg 73%
    13:00 +15°C° 0 mm 4 m/s 757 mmHg 69%
    14:00 +15°C° 0 mm 4 m/s 757 mmHg 67%
    15:00 +17°C° 0 mm 4 m/s 756 mmHg 66%
    16:00 +17°C° 0 mm 4 m/s 756 mmHg 64%
    17:00 +17°C° 0 mm 4 m/s 756 mmHg 69%
    18:00 +15°C° 0 mm 4 m/s 756 mmHg 73%
    19:00 +14°C° 0 mm 3 m/s 756 mmHg 77%
    20:00 +13°C° 0 mm 3 m/s 756 mmHg 82%
    21:00 +11°C° 0 mm 3 m/s 756 mmHg 87%
    22:00 +9°C° 0 mm 2 m/s 757 mmHg 92%
    23:00 +9°C° 0 mm 2 m/s 756 mmHg 93%

    26 Mai, Dimanche

    Heure Température Précipitation Vent Pression Humidité
    00:00 +8°C° 0 mm 2 m/s 756 mmHg 94%
    01:00 +8°C° 0 mm 2 m/s 756 mmHg 95%
    02:00 +8°C° 0 mm 2 m/s 756 mmHg 94%
    03:00 +8°C° 0 mm 2 m/s 755 mmHg 93%
    04:00 +8°C° 0 mm 3 m/s 755 mmHg 92%
    05:00 +9°C° 0 mm 3 m/s 755 mmHg 89%
    06:00 +10°C° 0 mm 4 m/s 755 mmHg 86%
    07:00 +10°C° 0 mm 5 m/s 754 mmHg 82%
    08:00 +13°C° 0 mm 5 m/s 754 mmHg 76%
    09:00 +14°C° 0 mm 5 m/s 754 mmHg 70%
    10:00 +16°C° 0 mm 6 m/s 754 mmHg 64%
    11:00 +15°C° 0.2 mm 5 m/s 753 mmHg 73%
    12:00 +14°C° 0.2 mm 5 m/s 753 mmHg 81%
    13:00 +13°C° 0.2 mm 5 m/s 753 mmHg 89%
    14:00 +14°C° 0.1 mm 5 m/s 753 mmHg 89%
    15:00 +14°C° 0.1 mm 5 m/s 753 mmHg 88%
    16:00 +15°C° 0.1 mm 5 m/s 753 mmHg 87%
    17:00 +15°C° 0.1 mm 4 m/s 752 mmHg 88%
    18:00 +16°C° 0.1 mm 3 m/s 752 mmHg 89%
    19:00 +16°C° 0.1 mm 2 m/s 752 mmHg 90%
    20:00 +15°C° 0 mm 2 m/s 752 mmHg 92%
    21:00 +14°C° 0 mm 2 m/s 752 mmHg 94%
    22:00 +14°C° 0 mm 1 m/s 752 mmHg 96%
    23:00 +14°C° 0.4 mm 2 m/s 751 mmHg 96%

    27 Mai, Lundi

    Heure Température Précipitation Vent Pression Humidité
    00:00 +14°C° 0.4 mm 2 m/s 751 mmHg 96%
    01:00 +14°C° 0.4 mm 2 m/s 751 mmHg 96%
    02:00 +13°C° 0.1 mm 3 m/s 750 mmHg 96%
    03:00 +13°C° 0.1 mm 3 m/s 750 mmHg 96%
    04:00 +13°C° 0.1 mm 3 m/s 749 mmHg 96%
    05:00 +13°C° 0 mm 4 m/s 749 mmHg 94%
    06:00 +14°C° 0 mm 4 m/s 749 mmHg 92%
    07:00 +15°C° 0 mm 5 m/s 748 mmHg 90%
    08:00 +16°C° 0 mm 5 m/s 748 mmHg 85%
    09:00 +17°C° 0 mm 5 m/s 748 mmHg 81%
    10:00 +19°C° 0 mm 6 m/s 748 mmHg 77%
    11:00 +19°C° 0.3 mm 5 m/s 748 mmHg 78%
    12:00 +17°C° 0.3 mm 5 m/s 748 mmHg 80%
    13:00 +17°C° 0.3 mm 5 m/s 747 mmHg 82%
    14:00 +17°C° 0.3 mm 5 m/s 747 mmHg 82%
    15:00 +17°C° 0.3 mm 5 m/s 747 mmHg 82%
    16:00 +17°C° 0.3 mm 5 m/s 747 mmHg 81%
    17:00 +17°C° 0 mm 4 m/s 747 mmHg 82%
    18:00 +16°C° 0 mm 3 m/s 747 mmHg 83%
    19:00 +15°C° 0 mm 2 m/s 747 mmHg 83%
    20:00 +14°C° 0 mm 1 m/s 747 mmHg 86%
    21:00 +13°C° 0 mm 1 m/s 748 mmHg 88%
    22:00 +13°C° 0 mm 1 m/s 748 mmHg 90%
    23:00 +12°C° 0 mm 1 m/s 748 mmHg 92%

    28 Mai, Mardi

    Heure Température Précipitation Vent Pression Humidité
    00:00 +11°C° 0 mm 1 m/s 748 mmHg 94%
    01:00 +10°C° 0 mm 1 m/s 748 mmHg 95%
    02:00 +10°C° 0 mm 1 m/s 748 mmHg 96%
    03:00 +10°C° 0 mm 1 m/s 748 mmHg 96%
    04:00 +9°C° 0 mm 1 m/s 748 mmHg 97%
    05:00 +10°C° 0 mm 0 m/s 748 mmHg 93%
    06:00 +11°C° 0 mm 0 m/s 748 mmHg 89%
    07:00 +12°C° 0 mm 0 m/s 748 mmHg 86%
    08:00 +14°C° 0.1 mm 0 m/s 748 mmHg 78%
    09:00 +16°C° 0.1 mm 1 m/s 748 mmHg 71%
    10:00 +18°C° 0.1 mm 1 m/s 748 mmHg 63%
    11:00 +19°C° 0.2 mm 1 m/s 748 mmHg 61%
    12:00 +19°C° 0.2 mm 2 m/s 748 mmHg 59%
    13:00 +19°C° 0.2 mm 2 m/s 748 mmHg 56%
    14:00 +19°C° 0.3 mm 2 m/s 748 mmHg 59%
    15:00 +19°C° 0.3 mm 2 m/s 749 mmHg 62%
    16:00 +18°C° 0.3 mm 2 m/s 749 mmHg 65%
    17:00 +17°C° 0.3 mm 2 m/s 749 mmHg 72%
    18:00 +16°C° 0.3 mm 2 m/s 749 mmHg 78%
    19:00 +16°C° 0.3 mm 2 m/s 750 mmHg 85%
    20:00 +14°C° 0.2 mm 2 m/s 750 mmHg 88%
    21:00 +13°C° 0.2 mm 2 m/s 751 mmHg 91%
    22:00 +12°C° 0.2 mm 2 m/s 752 mmHg 93%
    23:00 +10°C° 0 mm 3 m/s 752 mmHg 93%
    Voir plus